Flag for Norway Weather past 2 weeks in Nærbø, Norway

Now
66 °F

Mild.


Feels Like: 66 °F
Forecast: 60 / 66 °F
Wind: 7 mph from West

Location: Obrestad

Current Time: Jul 30, 2014 at 7:21:05 PM

Latest Report: Jul 30, 2014 at 6:00 PM


Visibility: N/A

Pressure: 29.74 "Hg

Humidity: 67%

Dew point: 54 °F

Location of NærbøLocation

Historic Weather in Nærbø — Graph

°F

Nærbø temperature yesterday

Maximum temperature yesterday: 67 °F (at 8:00 AM)
Minimum temperature yesterday: 62 °F (at 6:00 AM)
Average temperature yesterday: 65 °F

Past Weeks' High & Low Weather Summary

 TemperatureHumidityPressure
High80 °F (Jul 26, 1:00 PM)95% (Jul 17, 9:00 AM)30.31 "Hg (Jul 17, 9:00 AM)
Low56 °F (Jul 19, 4:00 AM)39% (Jul 20, 1:00 PM)29.74 "Hg (Jul 30, 6:00 PM)
Average66 °F76%30.05 "Hg
* Reported Jul 15 6:00 PM — Jul 30 6:00 PM, Nærbø, Weather by CustomWeather, © 2014

Note: Actual official high and low records may vary slightly from our data, if they occured in-between our weather recording intervals... More about our weather records

Advertising

Nærbø weather history for previous 24 hours

 ConditionsComfort  
Time TempWeatherWind HumidityBarometerVisibility
6:00 PM
Jul 30
66 °FMild.7 mph67%29.74 "HgN/A
5:00 PM64 °FMild.6 mph70%29.74 "HgN/A
4:00 PM65 °FMild.7 mph70%29.75 "HgN/A
3:00 PM65 °FMild.5 mph67%29.75 "HgN/A
2:00 PM62 °FCool.7 mph82%29.76 "HgN/A
1:00 PM66 °FMild.6 mph69%29.75 "HgN/A
12:00 PM65 °FMild.7 mph70%29.75 "HgN/A
11:00 AM65 °FMild.5 mph69%29.75 "HgN/A
10:00 AM63 °FMild.6 mph73%29.75 "HgN/A
9:00 AM64 °FMild.5 mph71%29.75 "HgN/A
8:00 AM63 °FMild.6 mph72%29.74 "HgN/A
7:00 AM62 °FMild.8 mph70%29.74 "HgN/A
6:00 AM62 °FMild.8 mph75%29.75 "HgN/A
5:00 AM62 °FMild.9 mph77%29.75 "HgN/A
4:00 AM63 °FMild.9 mph79%29.75 "HgN/A
3:00 AM62 °FCool.7 mph88%29.76 "HgN/A
2:00 AM62 °FCool.3 mph94%29.76 "HgN/A
1:00 AM61 °FCool.3 mph93%29.78 "HgN/A
12:00 AM62 °FCool.3 mph91%29.79 "HgN/A
11:00 PM
Jul 29
65 °FMild.2 mph78%29.80 "HgN/A
10:00 PM65 °FMild.1 mph76%29.80 "HgN/A
9:00 PM65 °FMild.1 mph75%29.81 "HgN/A
8:00 PM65 °FMild.5 mph73%29.83 "HgN/A
7:00 PM65 °FMild.7 mph72%29.84 "HgN/A
Weather by CustomWeather, © 2014

See weather overviewHow to use our weather pages